LUCH 5V (39727 NORAD) Tracking and Keplerian Element Data

This shows tracking and keplerian element data for the satellite.

Feedback or suggestion? Click here.




ElementValue
Catalog39727
NameLUCH 5V
Epoch Orbit53499
Epoch Day344.88205774
Epoch Year2018
RAAN300.9897
Inclination1.6119
Eccentricity0.0002178
Argument of Perigee0.7238
Mean Anonmoly190.068
Mean Motion1.00276513
Decay Rate-2.64E-06
L11 39727U 14023A 18344.88205774 -.00000264 00000-0 00000-0 0 9992
L22 39727 1.6119 300.9897 0002178 0.7238 190.0680 1.00276513534991

Live tracking and technical data element details for LUCH 5V (NORAD 39727). LUCH 5V can be tracked NOW for your location showing map with azimuth and elevation plus other details from your city location.

Track the satellite on the map from your city or location and see movement details for azimuth, elevation, latitude, longitude, range, height, and movement on the map or in text.







IsCatalogInMostPopularTable: catalog: 39727, numindb: 80
Update: records affected: 1



GetName: 39727 LUCH 5V

Hit Count: updated at: Thu, 13 Dec 2018 03:46:20 GMT